Regional Weather Roundup
Issued by NWS

Current Version | Previous Version | Text Only | Print | Product List | Glossary On
Versions: 1 2 3 4 5 6 7 8 9 10 11 12 13 14 15 16 17 18 19 20 21 22 23 24 25 26 27 28 29 30 31 32 33 34 35 36 37 38 39 40 41 42 43 44 45 46 47 48 49 50
000
ASUS44 KOUN 301010
RWROK

WEATHER ROUNDUP FOR OKLAHOMA
NATIONAL WEATHER SERVICE NORMAN OK
500 AM CDT THU JUL 30 2015

NOTE: "FAIR" INDICATES FEW OR NO CLOUDS BELOW 12,000 FEET WITH NO
      SIGNIFICANT WEATHER AND/OR OBSTRUCTIONS TO VISIBILITY.

OKZ001>007-009>012-014-015-017-301100-
NORTHWEST OKLAHOMA AND THE PANHANDLE

CITY           SKY/WX    TMP DP  RH WIND       PRES   REMARKS
GAGE           PTCLDY    70  68  93 NE5       30.16S
GUYMON         MOCLDY    68  65  90 NE3       30.24S
ENID/WOODRING  PTCLDY    75  70  83 E9        30.09F
$$

OKZ016-021>023-033>039-044-045-301100-
SOUTHWEST OKLAHOMA

CITY           SKY/WX    TMP DP  RH WIND       PRES   REMARKS
LAWTON/REGL    PTCLDY    77  66  68 E3        30.08S
LAWTON/FT SILL PTCLDY    76  66  70 CALM      30.07S
FREDERICK      CLEAR     77  69  76 E7        30.05S
CLINTON        CLEAR     73  70  90 NE6       30.15R
HOBART         CLEAR     75  71  87 NE8       30.11S
ALTUS AFB      PTCLDY    78  65  64 NE8       30.08S
$$

OKZ018>020-024>031-301100-
CENTRAL OKLAHOMA

CITY           SKY/WX    TMP DP  RH WIND       PRES   REMARKS
OKLAHOMA CITY  PTCLDY    77  74  90 NE7       30.11S
OKC/WILEY POST CLEAR     78  74  87 E10       30.11F
OKC/TINKER AFB CLEAR     76  73  91 NE7       30.10S
STILLWATER     CLEAR     76  71  85 E6        30.10F
GUTHRIE        CLEAR     77  72  84 E6        30.10F
$$

OKZ008-013-054>072-301100-
NORTHEAST OKLAHOMA

CITY           SKY/WX    TMP DP  RH WIND       PRES   REMARKS
TULSA          PTCLDY    78  73  84 NE5       30.08F
TULSA/JONES    CLEAR     78  72  81 NE3       30.09F
PONCA CITY     PTCLDY    77  69  76 E10       30.10F
BARTLESVILLE   PTCLDY    73  71  93 N3        30.12
MUSKOGEE       CLEAR     79  75  87 NE3       30.09F
$$

OKZ032-040>043-046>053-073>077-301100-
SOUTH CENTRAL/SOUTHEAST OKLAHOMA

CITY           SKY/WX    TMP DP  RH WIND       PRES   REMARKS
ARDMORE/DWNTWN CLEAR     73  66  78 CALM      30.07S
MCALESTER      MOCLDY    81  74  79 CALM      30.08S
$$




USA.gov is the U.S. government's official web portal to all federal, state and local government web resources and services.